Content
SEND FEEDBACK

Daily
Averages
Monthly
Summary
United States of America

BOROUGH OF BRONX, NEW YORK


Home > North America > United States > New York
Elevation: 39 feet     Latitude: 40 50N     Longitude: 073 51W

WEATHER
 
SELECT A DAY
Number of Records: 191,039;   Date Range: 1/1/95 - 7/23/14
 
SHARE

PRINT THIS DATA

[ ← Previous Day ]
WEATHER ALMANAC - FEBRUARY 3, 2014
[ Next Day → ]
[ °C ]   °F
Weather ElementAverageHighLow
Temperature31.6 °F39 °F (1:51 am)28.9 °F (11:51 pm)
Dewpoint27.6 °F32 °F (1:51 am)19.9 °F (11:51 pm)
Humidity85.1 %93 % (6:03 am)69 % (10:51 pm)
Barometer30.16 in30.32 in (10:51 pm)30.09 in (12:22 pm)
Wind Speed9.6 mph15 mph (4:32 pm)
Wind Gust20.7 mph (2:51 pm)
Weather ElementAverage
Visibility3.3 mi
Wind DirectionSSW (188.8 °)

Weather ElementTotal
Precipitation1.84 in
Heating Degree Days31.1 (Base 65)
Averaged from 42 records on February 3, 2014
WEATHER CONDITIONS BREAKOUT
WIND DIRECTION BREAKOUT
WEATHER BY HOUR - FEBRUARY 3, 2014
[ °C ]   °F
Local TimeTemperatureDewpointHumidityBarometerVisibilityWind DirectionWind SpeedGust SpeedPrecipitationEventsConditions
1:51 AM39.0 °F32.0 °F76 %30.10 in9.0 miNNE (30°)3.5 mph0.00 inRainLight Rain
2:51 AM37.9 °F32.0 °F79 %30.11 in7.0 miNorth (10°)8.1 mph0.04 inRainLight Rain
3:51 AM36.0 °F30.0 °F79 %30.12 in7.0 miNorth (360°)8.1 mph0.06 inRainLight Rain
4:30 AM33.8 °F28.4 °F81 %30.14 in4.0 miNNW (340°)9.2 mph0.03 inRainLight Rain
4:33 AM33.8 °F28.4 °F81 %30.14 in1.5 miNorth (360°)8.1 mph0.03 inSnowLight Snow
4:51 AM33.1 °F30.0 °F89 %30.14 in1.5 miNorth (360°)10.4 mph0.05 inSnowLight Snow
5:47 AM33.8 °F30.2 °F87 %30.13 in2.0 miNNE (20°)6.9 mph0.04 inSnowLight Snow
5:51 AM33.1 °F30.0 °F89 %30.13 in2.0 miNNE (30°)6.9 mph0.04 inSnowLight Snow
6:03 AM32.0 °F30.2 °F93 %30.13 in0.5 miNE (40°)5.8 mph0.02 inSnowLight Snow
6:27 AM32.0 °F30.2 °F93 %30.14 in0.5 miNNE (20°)5.8 mph0.04 inSnowLight Snow
6:51 AM32.0 °F30.0 °F92 %30.14 in0.8 miNorth (10°)6.9 mph0.08 inSnowLight Snow
7:30 AM32.0 °F28.4 °F87 %30.14 in0.5 miNNE (30°)8.1 mph0.06 inFog-SnowSnow
7:51 AM32.0 °F28.9 °F88 %30.14 in0.5 miNNE (30°)8.1 mph0.11 inFog-SnowSnow
8:01 AM32.0 °F28.4 °F87 %30.15 in0.2 miNNE (30°)8.1 mph0.02 inFog-SnowSnow
8:46 AM30.2 °F28.4 °F93 %30.15 in0.2 miNE (40°)10.4 mph0.11 inFog-SnowSnow
8:51 AM30.9 °F28.9 °F92 %30.15 in0.5 miNE (40°)9.2 mph0.12 inFog-SnowSnow
9:37 AM32.0 °F28.4 °F87 %30.17 in0.2 miNorth (10°)6.9 mph0.07 inFog-SnowSnow
9:51 AM32.0 °F28.9 °F88 %30.17 in0.2 miNNE (20°)6.9 mph0.10 inFog-SnowSnow
10:51 AM30.9 °F28.9 °F92 %30.15 in0.2 miNNE (30°)8.1 mph0.11 inFog-SnowSnow
11:19 AM30.2 °F28.4 °F93 %30.14 in0.5 miNNE (30°)9.2 mph0.03 inFog-SnowSnow
11:46 AM30.2 °F28.4 °F93 %30.12 in0.2 miNNE (20°)10.4 mph0.07 inFog-SnowSnow
11:51 AM30.9 °F28.0 °F89 %30.11 in0.2 miNNE (30°)10.4 mph0.08 inFog-SnowSnow
12:22 PM30.2 °F28.4 °F93 %30.09 in0.2 miNNE (20°)11.5 mph0.05 inFog-SnowSnow
12:51 PM32.0 °F28.9 °F88 %30.09 in0.5 miNorth (10°)10.4 mph0.08 inFog-SnowSnow
1:51 PM32.0 °F28.9 °F88 %30.10 in0.5 miNorth (350°)11.5 mph0.06 inFog-SnowSnow
2:47 PM30.2 °F28.4 °F93 %30.10 in1.0 miNorth (360°)11.5 mph0.04 inSnowLight Snow
2:51 PM30.9 °F28.0 °F89 %30.11 in1.0 miNorth (350°)11.5 mph20.7 mph0.04 inSnowLight Snow
3:51 PM30.0 °F26.1 °F85 %30.14 in0.8 miNorth (350°)13.8 mph0.01 inSnowLight Snow
4:32 PM30.2 °F26.6 °F86 %30.15 in5.0 miNorth (350°)15.0 mph0.01 inSnowLight Snow
4:51 PM30.9 °F26.1 °F82 %30.16 in5.0 miNNW (340°)13.8 mph0.03 inSnowLight Snow
5:01 PM30.2 °F26.6 °F86 %30.16 in0.8 miNorth (360°)12.7 mph0.00 inSnowLight Snow
5:35 PM30.2 °F26.6 °F86 %30.18 in2.0 miNorth (360°)15.0 mph0.07 inSnowLight Snow
5:49 PM30.2 °F26.6 °F86 %30.18 in2.5 miNorth (350°)11.5 mph0.07 inSnowLight Snow
5:51 PM30.0 °F26.1 °F85 %30.19 in2.5 miNorth (350°)11.5 mph0.07 inSnowLight Snow
6:47 PM30.2 °F24.8 °F80 %30.22 in7.0 miNorth (350°)10.4 mph0.00 inOvercast
6:51 PM30.9 °F25.0 °F79 %30.23 in10.0 miNorth (350°)11.5 mph0.00 inOvercast
7:51 PM30.9 °F25.0 °F79 %30.24 in10.0 miNorth (360°)9.2 mphOvercast
8:17 PM30.2 °F24.8 °F80 %30.25 in10.0 miNorth (360°)11.5 mphOvercast
8:51 PM30.9 °F23.0 °F72 %30.26 in9.0 miNorth (10°)8.1 mphOvercast
9:51 PM30.0 °F21.9 °F72 %30.28 in10.0 miNorth (350°)8.1 mphMostly Cloudy
10:51 PM30.0 °F21.0 °F69 %30.32 in10.0 miNorth (350°)10.4 mphMostly Cloudy
11:51 PM28.9 °F19.9 °F69 %30.31 in10.0 miNorth (360°)8.1 mphScattered Clouds
Hourly data recorded from KLGA, located miles away from Borough of Bronx, New York







STORIES FROM OUR PARTNERS